Location: Dal�� Lhota
(48.7500°N, 14.0167°E)
Time: 22:23:08
(UTC+00:00)

Cosmos 1428 Rocket - Pass Details

Date: 24 September 2020
Orbit: 947 x 989 km, 82.9° (Epoch: 25 October)

Event Time Altitude Azimuth Distance (km) Brightness Sun altitude
Rises 18:57:04 0° 350° (N) 3,696 8.0 -20.2°
Reaches altitude 10° 18:59:37 10° 351° (N) 2,739 7.3 -20.5°
Maximum altitude 19:05:55 89° 84° (E) 978 4.4 -21.5°
Enters shadow 19:10:08 22° 172° (S) 1,974 5.8 -22.1°
